FENGYUN 1C DEB

Satellite information

Favourite Embed

Satellite Type and Status

DEBRISDECAYED

Key statistics

Satellite FENGYUN 1C DEB at a glance.

Uptime

9469

Days in orbit

Revolutions

≈ 15.9

Per day

Orbit

SSO

Sun Synchronous Orbit

Inclination

101.2

Latest

Satellite identification and parameters

Extended collection of information and parameters for FENGYUN 1C DEB.

Object identification

Identified? True

Debris? True

Object name: FENGYUN 1C DEB

International designator: 1999-025CAG

Object number (NORAD): 31626

Object ID (CCSDS): 31626

Country: PEOPLES REPUBLIC OF CHINA (PRC)

Current information (Y/N): Y

RCS size: SMALL

Orbital parameters

Decay date: April 12, 2025

Period: 90.402 minutes

Inclination: 101.2266 deg

SMA: 6672.327 km

Apoapsis: 303.546 km

Periapsis: 284.839 km

RAAN: 302.9367 deg

Eccentricy: 0.0014018

Argument of periapsis: 305.7772 deg

Mean anomaly: 54.2185 deg

Mean motion: 15.92893554 rev/day

Mean motion (dot): 0.06877263 rev/day2

B* drag term: 0.029609 1/REarth

Two-line elements (TLE)

Creation date: April 8, 2025, 6:04 p.m.

Reference frame: TEME

Reference center: EARTH

Epoch: April 8, 2025, 7:08 a.m. UTC

TLE line 0: 0 FENGYUN 1C DEB

TLE line 1: 1 31626U 99025CAG 25098.29742976 .06877263 11380+0 29609-1 0 9991

TLE line 2: 2 31626 101.2266 302.9367 0014018 305.7772 54.2185 15.92893554605202

Live tracking on map

Satellite FENGYUN 1C DEB has decayed and is no longer in orbit. No tracking available.

In-orbit conjunctions

Satellite FENGYUN 1C DEB has decayed and is no longer in orbit. No conjunctions available.

Associated space launch

Chinese polar orbiting meteorological satellite

FENGYUN 1C DEB was lifted into orbit during the mission ‘Long March 4B | Feng Yun 1C’, on board a Long March 4B space rocket.

The launch took place on May 10, 1999, 1:33 a.m. from Launch Complex 7.

For more information about the launch, click the button.

Launch to space Long March 4B | Feng Yun 1C
Long March 4B | Feng Yun 1C

Agency: N/A

Status: Launch Successful

Launch date: May 10, 1999, 1:33 a.m. UTC

Rocket: Long March 4B

Launch pad: Launch Complex 7

Location: Taiyuan Satellite Launch Center, People's Republic of China

...

Latest news about this satellite

There are no fresh news available about this satellite. Check back as we update our databases every day.


Newsletter sign-up

Weekly statistics, charts and insights to help you stay on top of the space industry.